Regional Weather Roundup
Issued by NWS

Home | Current Version | Previous Version | Text Only | Print | Product List | Glossary On
Versions: 1 2 3 4 5 6 7 8 9 10 11 12 13 14 15 16 17 18 19 20 21 22 23 24 25 26 27 28 29 30 31 32 33 34 35 36 37 38 39 40 41 42 43 44 45 46 47 48 49 50
000
ASUS43 KDTX 041510
RWRMI
MICHIGAN HOURLY REGIONAL WEATHER ROUNDUP
NATIONAL WEATHER SERVICE DETROIT/PONTIAC MI
1000 AM EST WED MAR 04 2015

NOTE: "FAIR" INDICATES FEW OR NO CLOUDS BELOW 12,000 FEET WITH NO
SIGNIFICANT WEATHER AND/OR OBSTRUCTION TO VISIBILITY.

MIZ047>049-052>055-059>063-066>070-074>076-081>083-041600-
SOUTHEAST LOWER MICHIGAN

CITY           SKY/WX    TMP DP  RH WIND       PRES   REMARKS
ADRIAN         CLOUDY    31  21  66 W8        29.96R
ALMA           MOSUNNY   25  17  69 W15       29.95R
ANN ARBOR      CLOUDY    31  20  63 NW13      29.94R
BAD AXE        CLOUDY    24  15  70 NW9G16    29.91R
DETROIT CITY   CLOUDY    34  19  54 W12G21    29.95R
DETROIT        CLOUDY    33  22  63 W13       29.96R
FLINT          MOSUNNY   30  18  60 W12       29.93R
GROSSE ILE     CLOUDY    34  25  69 W8        29.94R
HILLSDALE      CLOUDY    31  22  71 W13       29.93R
HOWELL         MOSUNNY   28  19  67 NW9       29.92R

CITY           SKY/WX    TMP DP  RH WIND       PRES   REMARKS
JACKSON        CLOUDY    29  19  66 NW12      29.94R
LAMBERTVILLE   CLOUDY    34  27  75 W7        29.98R
LANSING        SUNNY     26  16  65 W15       29.95R
LAPEER         NOT AVBL
MASON          MOSUNNY   28  17  65 NW13      29.94R
MONROE         CLOUDY    34  25  69 W8        29.95R
MT. CLEMENS    PTSUNNY   32  23  68 W14       29.92R
PONTIAC        CLOUDY    29  20  69 NW14      29.90R
PORT HOPE        N/A     25  17  72 NW10      29.90R
PORT HURON     CLOUDY    32  19  59 W8G17     29.92S
TRI CITIES     MOSUNNY   27  18  69 SW10      29.93R
YPSILANTI      CLOUDY    34  20  56 W14       29.95R
$$
MIZ043>046-050>051-056>058-064>065-071>073-077>080-041600-
SOUTHWEST LOWER MICHIGAN

CITY           SKY/WX    TMP DP  RH WIND       PRES   REMARKS
BATTLE CREEK   CLOUDY    27  17  66 NW14      29.97R
BENTON HARBOR  CLOUDY    24  15  68 NW12G20   30.03R
BIG RAPIDS     MOSUNNY   21  11  64 NW10G20   29.94R
COLDWATER      CLOUDY    30  20  67 NW12      29.95S
HOLLAND        PTSUNNY   24  15  68 NW15G23   30.00R
GRAND RAPIDS   PTSUNNY   25  14  63 NW15      29.97R
KALAMAZOO      CLOUDY    27  18  69 NW14      29.98R
MARSHALL       PTSUNNY   27  18  67 NW14      29.95R
MUSKEGON       CLOUDY    22  12  65 NW16G24   30.00R
$$
MIZ016>042-041600-
NORTHERN LOWER MICHIGAN

CITY           SKY/WX    TMP DP  RH WIND       PRES   REMARKS
ALPENA         MIX PCPN  17   7  64 NW13      29.91R
BEAVER ISLAND  CLOUDY    12   2  63 NW13      29.94R WCI  -3
BELLAIRE       LGT SNOW  16   9  74 NW6       29.96R
CADILLAC       CLOUDY    16   8  71 W13       29.89R
CHARLEVOIX     CLOUDY    14   6  72 CALM      29.97R
FRANKFORT      PTSUNNY   16   6  66 NW12      29.98R
GAYLORD        CLOUDY    12   5  73 NW8       29.86R HAZE
GRAYLING       LGT SNOW  16  11  81 NW10      29.89R
HARBOR SPRINGS CLOUDY    13   4  65 NW9       29.93R
HOUGHTON LAKE  PTSUNNY   19   9  65 W14       29.89R
MANISTEE       CLOUDY    18   7  62 NW16      29.99R
OSCODA         PTSUNNY   24  14  66 W13G23    29.89R
PELLSTON       CLOUDY    12   1  61 NW17G26   29.93R WCI  -5
TRAVERSE CITY  FLURRIES  18   8  65 NW16      29.95R
$$
MIZ007>008-015-041600-
EASTERN UPPER MICHIGAN

CITY           SKY/WX    TMP DP  RH WIND       PRES   REMARKS
KINROSS        CLOUDY    10   5  79 NW18      29.87R WCI  -8
MACKINAC ISLAN PTSUNNY   14   4  64 NW12      29.89R
NEWBERRY       CLOUDY     8   2  74 W14       29.90R WCI  -8
S. S. MARIE    MIX PCPN   9   0  67 NW20      29.88R WCI -10
$$
MIZ004>006-011>014-085-041600-
CENTRAL UPPER MICHIGAN

CITY           SKY/WX    TMP DP  RH WIND       PRES   REMARKS
MANISTIQUE     SUNNY     10   0  61 NW12G20   29.95R WCI  -4
ESCANABA       SUNNY     10  -4  52 W14G21    29.98R WCI  -5
MENOMINEE      SUNNY      9  -4  56 NW14      30.01R WCI  -8
SAWYER-GWINN   CLOUDY     5  -4  66 W9        29.90R HAZE
$$
MIZ001>003-009>011-084-041600-
WESTERN UPPER MICHIGAN

CITY           SKY/WX    TMP DP  RH WIND       PRES   REMARKS
IRON MOUNTAIN  SUNNY      4  -8  57 W16G22    29.95R WCI -15
HOUGHTON       MIX PCPN   1  -7  68 NW23G35   29.92R WCI -22
COPPER HARBOR    N/A      1  -8  66 N25G31    29.94R WCI -23
IRONWOOD       CLOUDY     0  -8  71 W15       29.99R WCI -20
$$

ABBREVIATIONS USED IN REMARKS
   TC - TEMPERATURE IN CELSIUS
  WCI - WIND CHILL INDEX
   HX - HEAT INDEX
  VSB - VISIBILITY




USA.gov is the U.S. government's official web portal to all federal, state and local government web resources and services.